QPF
0.00 0.00 0.00 0.00 0.03 0.05 0.03 0.01 0.00 0.00 0.00 0.00 0.00 0.00 0.00 0.01 0.03 0.09 0.01 0.00 0.00 0.00 0.00 0.00 0.00 0.00 0.01 0.01 0.01 0.01 0.01 0.01 0.01 0.01 0.01 0.01 0.01 0.01 0.01 0.02 0.03 0.03 0.03 0.03 0.03 0.04 0.04 0.03 0.01
0.00 0.00 0.00 0.00 0.03 0.05 0.01 0.01 0.00 0.00 0.00 0.00 0.00 0.00 0.00 0.00 0.00 0.00 0.00 0.00 0.00 0.00 0.00 0.00 0.00 0.01 0.01 0.01 0.01 0.01 0.01 0.01 0.01 0.01 0.01 0.01 0.01 0.01 0.01 0.02 0.02 0.02 0.02 0.02 0.02 0.02 0.02 0.02 0.02
0.00 0.00 0.00 0.00 0.01 0.02 0.01 0.00 0.00 0.00 0.00 0.00 0.00 0.00 0.00 0.00 0.00 0.00 0.00 0.00 0.00 0.00 0.00 0.00 0.00 0.01 0.01 0.01 0.01 0.01 0.01 0.01 0.01 0.01 0.01 0.01 0.02 0.02 0.02 0.02 0.02 0.02 0.01 0.01 0.02 0.01 0.01 0.02 0.02
0.00 0.00 0.00 0.02 0.01 0.00 0.00 0.00 0.00 0.00 0.00 0.00 0.00 0.01 0.01 0.00 0.00 0.00 0.00 0.01 0.01 0.01 0.01 0.00 0.01 0.02 0.01 0.01 0.01 0.02 0.01 0.01 0.01 0.01 0.01 0.01 0.01 0.02 0.02 0.02 0.01 0.01 0.01 0.01 0.01 0.01 0.01 0.01 0.02
0.00 0.00 0.00 0.03 0.01 0.01 0.01 0.00 0.00 0.00 0.00 0.00 0.00 0.00 0.01 0.00 0.00 0.00 0.01 0.03 0.02 0.02 0.02 0.01 0.01 0.02 0.02 0.02 0.02 0.01 0.01 0.01 0.01 0.01 0.01 0.01 0.01 0.02 0.02 0.01 0.01 0.01 0.01 0.01 0.01 0.01 0.01 0.02 0.02
0.00 0.00 0.01 0.01 0.01 0.02 0.01 0.00 0.00 0.00 0.00 0.00 0.00 0.00 0.00 0.00 0.00 0.01 0.01 0.03 0.03 0.01 0.01 0.01 0.01 0.01 0.02 0.02 0.01 0.01 0.01 0.01 0.01 0.01 0.01 0.02 0.02 0.01 0.01 0.01 0.01 0.02 0.02 0.01 0.01 0.02 0.01 0.02 0.02
0.00 0.00 0.00 0.01 0.01 0.00 0.00 0.00 0.00 0.00 0.00 0.00 0.00 0.01 0.01 0.00 0.00 0.01 0.02 0.03 0.03 0.01 0.02 0.02 0.01 0.01 0.01 0.02 0.01 0.01 0.01 0.01 0.01 0.01 0.02 0.02 0.02 0.01 0.01 0.01 0.01 0.02 0.01 0.01 0.01 0.02 0.02 0.02 0.01
0.00 0.00 0.00 0.00 0.00 0.01 0.00 0.01 0.01 0.00 0.00 0.00 0.00 0.01 0.02 0.00 0.00 0.01 0.03 0.04 0.05 0.05 0.05 0.03 0.02 0.02 0.02 0.02 0.01 0.01 0.01 0.01 0.01 0.01 0.01 0.02 0.02 0.02 0.01 0.01 0.01 0.01 0.01 0.01 0.01 0.01 0.01 0.01 0.01
0.00 0.00 0.00 0.00 0.00 0.00 0.01 0.03 0.03 0.01 0.01 0.00 0.00 0.00 0.00 0.00 0.00 0.01 0.04 0.05 0.10 0.11 0.10 0.07 0.04 0.04 0.04 0.03 0.01 0.02 0.01 0.01 0.01 0.01 0.01 0.03 0.05 0.03 0.03 0.03 0.02 0.02 0.02 0.01 0.01 0.01 0.01 0.00 0.00
0.00 0.00 0.00 0.00 0.00 0.00 0.00 0.02 0.03 0.01 0.00 0.01 0.01 0.00 0.00 0.01 0.01 0.03 0.04 0.05 0.09 0.13 0.11 0.10 0.07 0.05 0.06 0.05 0.05 0.05 0.03 0.02 0.04 0.04 0.04 0.09 0.10 0.09 0.06 0.03 0.02 0.02 0.01 0.01 0.01 0.01 0.01 0.02 0.01
0.00 0.00 0.00 0.00 0.00 0.00 0.00 0.00 0.01 0.00 0.00 0.01 0.02 0.02 0.01 0.01 0.02 0.04 0.06 0.07 0.08 0.10 0.11 0.10 0.09 0.06 0.06 0.07 0.06 0.06 0.08 0.07 0.07 0.08 0.07 0.09 0.07 0.05 0.04 0.03 0.02 0.03 0.03 0.03 0.02 0.02 0.03 0.04 0.03
0.00 0.00 0.00 0.00 0.00 0.00 0.00 0.00 0.00 0.00 0.00 0.00 0.01 0.01 0.00 0.01 0.02 0.03 0.06 0.09 0.10 0.12 0.11 0.11 0.09 0.06 0.06 0.07 0.07 0.06 0.08 0.09 0.10 0.08 0.06 0.05 0.07 0.07 0.06 0.07 0.06 0.05 0.05 0.07 0.04 0.05 0.04 0.04 0.05
0.00 0.00 0.00 0.00 0.00 0.00 0.00 0.00 0.00 0.00 0.00 0.00 0.01 0.00 0.00 0.01 0.02 0.03 0.05 0.08 0.11 0.13 0.14 0.13 0.08 0.06 0.07 0.12 0.10 0.06 0.08 0.13 0.12 0.10 0.08 0.06 0.05 0.06 0.07 0.07 0.06 0.05 0.03 0.04 0.05 0.04 0.02 0.02 0.04
0.00 0.00 0.00 0.00 0.00 0.00 0.00 0.00 0.00 0.00 0.00 0.00 0.00 0.00 0.01 0.01 0.02 0.05 0.07 0.08 0.10 0.12 0.14 0.14 0.11 0.08 0.08 0.12 0.13 0.11 0.08 0.11 0.11 0.10 0.07 0.05 0.06 0.07 0.06 0.05 0.06 0.06 0.04 0.04 0.04 0.04 0.03 0.03 0.03
0.00 0.00 0.00 0.00 0.00 0.00 0.00 0.01 0.03 0.02 0.00 0.00 0.00 0.00 0.00 0.01 0.03 0.07 0.10 0.13 0.15 0.17 0.18 0.16 0.12 0.11 0.10 0.14 0.14 0.13 0.12 0.05 0.06 0.08 0.08 0.05 0.06 0.07 0.06 0.06 0.05 0.05 0.05 0.04 0.03 0.04 0.03 0.03 0.03
0.00 0.00 0.00 0.00 0.00 0.00 0.00 0.03 0.09 0.03 0.00 0.00 0.00 0.00 0.00 0.02 0.04 0.08 0.09 0.13 0.16 0.18 0.19 0.17 0.12 0.12 0.10 0.11 0.13 0.14 0.16 0.09 0.06 0.07 0.08 0.07 0.06 0.05 0.05 0.06 0.06 0.04 0.04 0.04 0.05 0.04 0.04 0.03 0.03
0.00 0.00 0.00 0.00 0.00 0.00 0.00 0.02 0.05 0.01 0.01 0.01 0.01 0.00 0.00 0.02 0.03 0.05 0.06 0.07 0.10 0.16 0.19 0.18 0.15 0.15 0.12 0.10 0.10 0.13 0.16 0.14 0.09 0.08 0.08 0.08 0.06 0.04 0.04 0.05 0.06 0.04 0.04 0.04 0.04 0.05 0.04 0.04 0.03
0.00 0.00 0.00 0.01 0.01 0.00 0.00 0.01 0.04 0.04 0.01 0.01 0.00 0.00 0.00 0.01 0.03 0.05 0.06 0.04 0.07 0.13 0.18 0.17 0.15 0.15 0.14 0.12 0.12 0.14 0.13 0.13 0.11 0.10 0.09 0.07 0.06 0.05 0.05 0.05 0.06 0.05 0.05 0.06 0.05 0.07 0.05 0.04 0.02
0.00 0.00 0.00 0.00 0.00 0.00 0.00 0.00 0.00 0.01 0.00 0.00 0.00 0.00 0.00 0.01 0.03 0.05 0.07 0.05 0.07 0.10 0.16 0.16 0.13 0.13 0.13 0.12 0.11 0.11 0.12 0.12 0.12 0.10 0.07 0.06 0.06 0.06 0.06 0.07 0.07 0.07 0.08 0.07 0.05 0.05 0.04 0.04 0.03
0.00 0.00 0.00 0.00 0.00 0.00 0.00 0.00 0.00 0.00 0.00 0.00 0.00 0.00 0.00 0.00 0.02 0.03 0.05 0.04 0.07 0.08 0.13 0.15 0.13 0.10 0.10 0.10 0.12 0.12 0.12 0.10 0.09 0.08 0.07 0.05 0.05 0.06 0.05 0.08 0.07 0.07 0.09 0.07 0.06 0.06 0.06 0.04 0.03
0.00 0.00 0.00 0.00 0.00 0.00 0.00 0.01 0.01 0.01 0.00 0.00 0.00 0.00 0.00 0.00 0.01 0.03 0.04 0.04 0.06 0.06 0.09 0.11 0.12 0.09 0.11 0.13 0.13 0.13 0.15 0.11 0.09 0.08 0.08 0.07 0.05 0.05 0.06 0.08 0.08 0.08 0.06 0.07 0.07 0.07 0.06 0.05 0.04
0.00 0.00 0.00 0.00 0.00 0.00 0.00 0.02 0.05 0.04 0.02 0.02 0.01 0.00 0.00 0.00 0.01 0.03 0.04 0.05 0.05 0.06 0.09 0.11 0.11 0.11 0.13 0.14 0.14 0.12 0.08 0.07 0.06 0.06 0.07 0.08 0.07 0.06 0.05 0.05 0.08 0.07 0.05 0.05 0.04 0.04 0.05 0.05 0.06
0.00 0.00 0.00 0.00 0.00 0.00 0.00 0.01 0.04 0.05 0.02 0.01 0.01 0.00 0.00 0.00 0.01 0.02 0.03 0.04 0.05 0.06 0.08 0.10 0.12 0.11 0.12 0.13 0.14 0.13 0.10 0.11 0.09 0.09 0.10 0.10 0.08 0.06 0.05 0.05 0.07 0.06 0.04 0.03 0.03 0.03 0.03 0.03 0.04
0.00 0.00 0.00 0.00 0.00 0.01 0.01 0.01 0.02 0.04 0.05 0.03 0.01 0.00 0.01 0.01 0.01 0.03 0.03 0.05 0.04 0.05 0.06 0.08 0.11 0.11 0.11 0.10 0.11 0.12 0.12 0.13 0.12 0.10 0.08 0.08 0.08 0.07 0.06 0.05 0.06 0.05 0.04 0.04 0.03 0.02 0.02 0.03 0.03
0.00 0.00 0.01 0.02 0.03 0.03 0.02 0.01 0.01 0.01 0.02 0.02 0.02 0.01 0.00 0.01 0.01 0.02 0.02 0.03 0.04 0.04 0.04 0.05 0.10 0.12 0.11 0.10 0.09 0.09 0.11 0.12 0.10 0.09 0.08 0.06 0.06 0.05 0.05 0.05 0.05 0.05 0.04 0.03 0.03 0.02 0.02 0.02 0.02
0.00 0.00 0.01 0.04 0.06 0.05 0.04 0.03 0.01 0.00 0.00 0.02 0.03 0.02 0.00 0.01 0.02 0.02 0.02 0.02 0.02 0.03 0.03 0.04 0.07 0.11 0.11 0.10 0.09 0.09 0.09 0.09 0.09 0.10 0.08 0.07 0.06 0.04 0.04 0.05 0.04 0.03 0.03 0.02 0.02 0.03 0.02 0.03 0.02
0.00 0.00 0.00 0.00 0.02 0.04 0.05 0.03 0.02 0.00 0.00 0.01 0.01 0.01 0.00 0.00 0.01 0.02 0.03 0.02 0.03 0.03 0.03 0.03 0.06 0.08 0.09 0.09 0.09 0.10 0.10 0.09 0.10 0.11 0.11 0.09 0.07 0.06 0.05 0.05 0.04 0.03 0.02 0.02 0.02 0.03 0.02 0.02 0.02
0.00 0.00 0.00 0.00 0.02 0.04 0.05 0.05 0.04 0.01 0.01 0.00 0.01 0.02 0.01 0.00 0.01 0.01 0.03 0.03 0.03 0.03 0.03 0.04 0.06 0.08 0.09 0.09 0.10 0.09 0.09 0.10 0.11 0.11 0.11 0.09 0.07 0.07 0.06 0.05 0.04 0.03 0.03 0.02 0.03 0.02 0.02 0.02 0.02
0.00 0.00 0.00 0.00 0.00 0.02 0.06 0.08 0.05 0.04 0.03 0.01 0.01 0.01 0.01 0.01 0.00 0.01 0.01 0.02 0.02 0.02 0.03 0.04 0.05 0.07 0.08 0.10 0.11 0.10 0.09 0.09 0.09 0.11 0.11 0.09 0.07 0.06 0.06 0.05 0.04 0.03 0.03 0.02 0.03 0.03 0.03 0.02 0.02
0.00 0.00 0.00 0.00 0.00 0.00 0.03 0.05 0.03 0.03 0.03 0.01 0.01 0.00 0.02 0.02 0.01 0.00 0.00 0.01 0.02 0.02 0.03 0.03 0.03 0.04 0.06 0.08 0.09 0.09 0.09 0.09 0.08 0.09 0.11 0.09 0.07 0.06 0.05 0.03 0.03 0.02 0.02 0.03 0.02 0.02 0.02 0.01 0.01
MSLP
1004.96 1005.51 1006.20 1006.89 1007.41 1007.68 1007.66 1007.35 1006.86 1006.31 1005.83 1005.51 1005.41 1005.50 1005.73 1006.03 1006.30 1006.51 1006.66 1006.79 1006.98 1007.29 1007.77 1008.41 1009.16 1009.94 1010.66 1011.24 1011.63 1011.84 1011.92 1011.95 1012.00 1012.14 1012.37 1012.69 1013.05 1013.38 1013.62 1013.76 1013.80 1013.77 1013.73 1013.72 1013.78 1013.91 1014.10 1014.31 1014.50
1005.17 1005.84 1006.55 1007.18 1007.58 1007.67 1007.45 1006.97 1006.35 1005.71 1005.18 1004.85 1004.75 1004.85 1005.08 1005.36 1005.62 1005.83 1006.02 1006.22 1006.53 1006.98 1007.61 1008.40 1009.28 1010.16 1010.92 1011.50 1011.87 1012.05 1012.10 1012.10 1012.15 1012.29 1012.55 1012.89 1013.26 1013.59 1013.84 1013.96 1013.99 1013.95 1013.91 1013.91 1013.98 1014.12 1014.32 1014.52 1014.70
1005.51 1006.26 1006.97 1007.50 1007.74 1007.65 1007.24 1006.60 1005.86 1005.16 1004.62 1004.30 1004.22 1004.34 1004.57 1004.84 1005.09 1005.30 1005.51 1005.77 1006.16 1006.73 1007.49 1008.41 1009.40 1010.35 1011.16 1011.77 1012.14 1012.31 1012.35 1012.35 1012.41 1012.56 1012.82 1013.16 1013.52 1013.83 1014.05 1014.16 1014.18 1014.15 1014.12 1014.14 1014.23 1014.38 1014.56 1014.74 1014.89
1005.93 1006.70 1007.34 1007.75 1007.82 1007.55 1006.98 1006.22 1005.41 1004.70 1004.18 1003.91 1003.88 1004.03 1004.28 1004.55 1004.79 1005.00 1005.22 1005.52 1005.96 1006.61 1007.46 1008.46 1009.52 1010.53 1011.38 1012.01 1012.40 1012.59 1012.65 1012.67 1012.73 1012.90 1013.16 1013.48 1013.81 1014.09 1014.29 1014.39 1014.41 1014.39 1014.39 1014.43 1014.53 1014.68 1014.85 1015.00 1015.11
1006.33 1007.04 1007.58 1007.83 1007.73 1007.31 1006.62 1005.80 1004.99 1004.32 1003.88 1003.70 1003.75 1003.96 1004.24 1004.52 1004.75 1004.95 1005.17 1005.48 1005.95 1006.64 1007.52 1008.56 1009.65 1010.68 1011.55 1012.20 1012.61 1012.83 1012.92 1012.98 1013.08 1013.25 1013.51 1013.81 1014.11 1014.37 1014.54 1014.63 1014.66 1014.66 1014.69 1014.77 1014.89 1015.04 1015.18 1015.29 1015.34
1006.61 1007.21 1007.59 1007.66 1007.41 1006.86 1006.12 1005.31 1004.56 1003.99 1003.67 1003.61 1003.77 1004.05 1004.37 1004.67 1004.91 1005.10 1005.32 1005.63 1006.11 1006.79 1007.67 1008.70 1009.78 1010.79 1011.65 1012.30 1012.73 1012.98 1013.12 1013.22 1013.36 1013.56 1013.82 1014.11 1014.39 1014.61 1014.77 1014.86 1014.90 1014.94 1015.00 1015.11 1015.25 1015.40 1015.52 1015.58 1015.58
1006.72 1007.14 1007.33 1007.22 1006.83 1006.21 1005.47 1004.71 1004.08 1003.66 1003.50 1003.58 1003.84 1004.21 1004.58 1004.91 1005.16 1005.36 1005.58 1005.89 1006.35 1007.02 1007.86 1008.84 1009.86 1010.83 1011.65 1012.28 1012.72 1012.99 1013.18 1013.34 1013.52 1013.74 1014.02 1014.31 1014.58 1014.79 1014.94 1015.03 1015.10 1015.17 1015.27 1015.41 1015.56 1015.71 1015.80 1015.83 1015.78
1006.64 1006.85 1006.82 1006.55 1006.05 1005.40 1004.69 1004.04 1003.56 1003.30 1003.30 1003.52 1003.89 1004.32 1004.74 1005.10 1005.37 1005.59 1005.82 1006.14 1006.60 1007.24 1008.04 1008.95 1009.89 1010.78 1011.53 1012.12 1012.55 1012.85 1013.07 1013.28 1013.51 1013.78 1014.09 1014.39 1014.66 1014.87 1015.03 1015.13 1015.22 1015.32 1015.45 1015.61 1015.78 1015.92 1016.00 1015.99 1015.91
1006.39 1006.38 1006.16 1005.74 1005.17 1004.52 1003.89 1003.36 1003.02 1002.92 1003.06 1003.38 1003.83 1004.31 1004.77 1005.15 1005.45 1005.70 1005.96 1006.29 1006.76 1007.38 1008.13 1008.97 1009.83 1010.62 1011.30 1011.84 1012.24 1012.55 1012.81 1013.07 1013.35 1013.67 1014.01 1014.34 1014.62 1014.85 1015.01 1015.13 1015.24 1015.36 1015.51 1015.69 1015.87 1016.01 1016.08 1016.07 1015.97
1006.03 1005.84 1005.46 1004.93 1004.32 1003.70 1003.15 1002.74 1002.54 1002.56 1002.79 1003.17 1003.65 1004.15 1004.61 1005.00 1005.33 1005.61 1005.92 1006.29 1006.78 1007.39 1008.11 1008.89 1009.66 1010.37 1010.97 1011.46 1011.84 1012.15 1012.43 1012.73 1013.06 1013.43 1013.81 1014.17 1014.48 1014.73 1014.91 1015.05 1015.18 1015.32 1015.48 1015.66 1015.84 1015.98 1016.06 1016.05 1015.98
1005.66 1005.33 1004.83 1004.24 1003.62 1003.05 1002.58 1002.28 1002.17 1002.27 1002.54 1002.93 1003.39 1003.86 1004.30 1004.69 1005.03 1005.35 1005.71 1006.13 1006.65 1007.27 1007.96 1008.70 1009.41 1010.05 1010.59 1011.03 1011.39 1011.70 1012.01 1012.34 1012.71 1013.12 1013.54 1013.93 1014.28 1014.56 1014.77 1014.92 1015.06 1015.21 1015.37 1015.55 1015.73 1015.88 1015.97 1015.99 1015.95
1005.35 1004.92 1004.37 1003.76 1003.17 1002.65 1002.26 1002.03 1001.98 1002.10 1002.36 1002.72 1003.12 1003.53 1003.92 1004.29 1004.63 1004.98 1005.38 1005.84 1006.40 1007.03 1007.72 1008.42 1009.09 1009.68 1010.19 1010.60 1010.95 1011.27 1011.59 1011.94 1012.35 1012.79 1013.24 1013.67 1014.05 1014.35 1014.59 1014.78 1014.93 1015.08 1015.24 1015.41 1015.59 1015.74 1015.86 1015.92 1015.93
1005.13 1004.67 1004.10 1003.52 1002.97 1002.52 1002.19 1002.02 1001.99 1002.10 1002.31 1002.59 1002.91 1003.25 1003.58 1003.90 1004.23 1004.60 1005.03 1005.52 1006.10 1006.74 1007.42 1008.10 1008.75 1009.32 1009.81 1010.22 1010.57 1010.89 1011.23 1011.60 1012.02 1012.47 1012.95 1013.40 1013.81 1014.15 1014.42 1014.64 1014.81 1014.97 1015.13 1015.30 1015.48 1015.64 1015.78 1015.89 1015.96
1005.02 1004.55 1004.01 1003.47 1002.99 1002.61 1002.34 1002.20 1002.18 1002.25 1002.40 1002.60 1002.83 1003.08 1003.35 1003.64 1003.96 1004.33 1004.76 1005.26 1005.83 1006.46 1007.12 1007.78 1008.41 1008.98 1009.47 1009.90 1010.26 1010.61 1010.96 1011.34 1011.76 1012.21 1012.68 1013.14 1013.58 1013.95 1014.26 1014.52 1014.73 1014.91 1015.09 1015.26 1015.44 1015.61 1015.78 1015.92 1016.04
1004.96 1004.52 1004.03 1003.56 1003.15 1002.84 1002.63 1002.51 1002.47 1002.50 1002.59 1002.71 1002.87 1003.07 1003.29 1003.55 1003.86 1004.22 1004.63 1005.11 1005.65 1006.24 1006.86 1007.49 1008.10 1008.67 1009.19 1009.64 1010.04 1010.41 1010.78 1011.15 1011.55 1011.98 1012.44 1012.90 1013.34 1013.74 1014.10 1014.41 1014.66 1014.89 1015.09 1015.28 1015.47 1015.66 1015.84 1016.02 1016.19
1004.90 1004.49 1004.07 1003.67 1003.35 1003.11 1002.95 1002.85 1002.79 1002.78 1002.82 1002.89 1003.00 1003.16 1003.38 1003.63 1003.93 1004.28 1004.67 1005.10 1005.58 1006.10 1006.66 1007.24 1007.83 1008.41 1008.94 1009.43 1009.88 1010.28 1010.66 1011.03 1011.40 1011.79 1012.21 1012.64 1013.08 1013.51 1013.91 1014.28 1014.60 1014.89 1015.14 1015.36 1015.57 1015.77 1015.97 1016.17 1016.36
1004.79 1004.42 1004.07 1003.77 1003.54 1003.37 1003.25 1003.16 1003.08 1003.03 1003.02 1003.05 1003.15 1003.30 1003.53 1003.81 1004.12 1004.46 1004.82 1005.20 1005.60 1006.04 1006.52 1007.03 1007.59 1008.16 1008.72 1009.26 1009.76 1010.20 1010.59 1010.94 1011.28 1011.62 1011.99 1012.38 1012.80 1013.25 1013.69 1014.12 1014.52 1014.88 1015.18 1015.45 1015.69 1015.91 1016.12 1016.33 1016.54
1004.59 1004.27 1004.02 1003.83 1003.70 1003.60 1003.52 1003.42 1003.31 1003.21 1003.14 1003.13 1003.21 1003.39 1003.64 1003.96 1004.32 1004.67 1005.01 1005.34 1005.66 1006.01 1006.39 1006.84 1007.35 1007.91 1008.50 1009.09 1009.64 1010.12 1010.53 1010.88 1011.18 1011.47 1011.78 1012.12 1012.51 1012.96 1013.43 1013.92 1014.39 1014.82 1015.20 1015.52 1015.80 1016.04 1016.26 1016.48 1016.69
1004.30 1004.08 1003.95 1003.89 1003.87 1003.85 1003.79 1003.66 1003.49 1003.30 1003.15 1003.09 1003.14 1003.32 1003.62 1003.99 1004.40 1004.79 1005.14 1005.44 1005.70 1005.96 1006.26 1006.63 1007.10 1007.65 1008.26 1008.89 1009.49 1010.03 1010.48 1010.83 1011.11 1011.35 1011.59 1011.87 1012.22 1012.65 1013.14 1013.67 1014.20 1014.71 1015.15 1015.53 1015.85 1016.13 1016.36 1016.58 1016.80
1003.98 1003.89 1003.93 1004.04 1004.15 1004.21 1004.15 1003.97 1003.70 1003.38 1003.09 1002.92 1002.91 1003.07 1003.39 1003.82 1004.29 1004.75 1005.13 1005.43 1005.66 1005.86 1006.09 1006.40 1006.81 1007.35 1007.97 1008.64 1009.30 1009.90 1010.39 1010.76 1011.03 1011.24 1011.44 1011.67 1011.97 1012.37 1012.85 1013.40 1013.97 1014.53 1015.04 1015.47 1015.84 1016.14 1016.40 1016.63 1016.85
1003.67 1003.79 1004.04 1004.35 1004.62 1004.76 1004.69 1004.43 1004.00 1003.49 1003.02 1002.68 1002.54 1002.64 1002.95 1003.42 1003.96 1004.49 1004.93 1005.27 1005.50 1005.68 1005.86 1006.11 1006.48 1006.99 1007.62 1008.32 1009.03 1009.69 1010.24 1010.66 1010.95 1011.15 1011.32 1011.51 1011.77 1012.13 1012.59 1013.14 1013.72 1014.31 1014.85 1015.34 1015.74 1016.07 1016.35 1016.60 1016.84
1003.45 1003.82 1004.34 1004.88 1005.32 1005.54 1005.46 1005.09 1004.47 1003.73 1003.01 1002.44 1002.12 1002.10 1002.36 1002.84 1003.44 1004.04 1004.57 1004.97 1005.24 1005.42 1005.57 1005.78 1006.10 1006.57 1007.18 1007.90 1008.65 1009.36 1009.98 1010.46 1010.81 1011.04 1011.22 1011.39 1011.62 1011.94 1012.37 1012.89 1013.46 1014.05 1014.62 1015.12 1015.56 1015.92 1016.23 1016.51 1016.77
1003.32 1003.97 1004.79 1005.59 1006.21 1006.52 1006.42 1005.93 1005.12 1004.12 1003.12 1002.29 1001.74 1001.56 1001.73 1002.19 1002.82 1003.50 1004.11 1004.59 1004.91 1005.11 1005.25 1005.41 1005.67 1006.09 1006.66 1007.36 1008.13 1008.89 1009.58 1010.14 1010.57 1010.86 1011.08 1011.28 1011.50 1011.79 1012.18 1012.66 1013.21 1013.78 1014.34 1014.86 1015.32 1015.71 1016.05 1016.36 1016.65
1003.26 1004.21 1005.32 1006.37 1007.17 1007.57 1007.48 1006.89 1005.89 1004.65 1003.38 1002.27 1001.49 1001.12 1001.17 1001.58 1002.22 1002.96 1003.65 1004.21 1004.59 1004.81 1004.93 1005.04 1005.23 1005.56 1006.05 1006.71 1007.46 1008.25 1009.00 1009.65 1010.17 1010.57 1010.87 1011.11 1011.36 1011.65 1012.02 1012.47 1012.97 1013.51 1014.05 1014.57 1015.03 1015.45 1015.82 1016.16 1016.48
1003.21 1004.43 1005.79 1007.06 1008.03 1008.53 1008.45 1007.79 1006.66 1005.22 1003.72 1002.39 1001.39 1000.84 1000.77 1001.11 1001.75 1002.52 1003.28 1003.90 1004.32 1004.56 1004.66 1004.71 1004.80 1005.02 1005.41 1005.97 1006.67 1007.46 1008.25 1008.99 1009.62 1010.13 1010.53 1010.86 1011.17 1011.49 1011.85 1012.27 1012.74 1013.25 1013.77 1014.27 1014.73 1015.16 1015.56 1015.92 1016.27
1003.09 1004.51 1006.05 1007.49 1008.59 1009.18 1009.13 1008.46 1007.27 1005.72 1004.09 1002.59 1001.44 1000.75 1000.57 1000.85 1001.47 1002.25 1003.04 1003.71 1004.17 1004.41 1004.48 1004.45 1004.43 1004.51 1004.76 1005.21 1005.83 1006.58 1007.38 1008.18 1008.91 1009.54 1010.07 1010.52 1010.91 1011.28 1011.66 1012.08 1012.53 1013.01 1013.50 1013.98 1014.45 1014.89 1015.29 1015.68 1016.05
1002.85 1004.37 1006.00 1007.52 1008.70 1009.35 1009.37 1008.74 1007.57 1006.02 1004.35 1002.80 1001.58 1000.82 1000.57 1000.79 1001.38 1002.16 1002.97 1003.66 1004.15 1004.39 1004.41 1004.31 1004.17 1004.11 1004.22 1004.52 1005.02 1005.70 1006.49 1007.32 1008.13 1008.87 1009.53 1010.09 1010.58 1011.03 1011.45 1011.89 1012.34 1012.80 1013.27 1013.74 1014.20 1014.63 1015.04 1015.44 1015.81
1002.47 1003.97 1005.57 1007.08 1008.27 1008.96 1009.05 1008.52 1007.44 1005.99 1004.41 1002.91 1001.72 1000.95 1000.68 1000.89 1001.45 1002.23 1003.04 1003.74 1004.23 1004.47 1004.47 1004.31 1004.08 1003.90 1003.85 1004.01 1004.39 1004.97 1005.71 1006.53 1007.39 1008.21 1008.97 1009.64 1010.23 1010.76 1011.25 1011.71 1012.17 1012.63 1013.09 1013.55 1013.99 1014.42 1014.83 1015.21 1015.58
1001.99 1003.34 1004.82 1006.22 1007.34 1008.03 1008.18 1007.77 1006.86 1005.60 1004.19 1002.85 1001.77 1001.09 1000.85 1001.05 1001.60 1002.36 1003.17 1003.88 1004.39 1004.64 1004.64 1004.46 1004.18 1003.92 1003.77 1003.80 1004.06 1004.53 1005.19 1005.98 1006.84 1007.70 1008.52 1009.27 1009.94 1010.54 1011.08 1011.58 1012.05 1012.52 1012.97 1013.42 1013.85 1014.26 1014.65 1015.01 1015.34
1001.49 1002.63 1003.87 1005.07 1006.06 1006.70 1006.89 1006.61 1005.91 1004.88 1003.72 1002.61 1001.71 1001.15 1000.98 1001.20 1001.75 1002.50 1003.29 1004.01 1004.55 1004.84 1004.89 1004.74 1004.47 1004.19 1003.99 1003.95 1004.10 1004.48 1005.05 1005.77 1006.59 1007.44 1008.27 1009.05 1009.76 1010.40 1010.98 1011.50 1011.99 1012.45 1012.90 1013.33 1013.74 1014.12 1014.48 1014.80 1015.10
Thickness
5847 5849 5848 5842 5822 5807 5809 5833 5847 5845 5844 5854 5856 5848 5833 5821 5808 5794 5827 5838 5831 5819 5809 5802 5798 5794 5791 5788 5786 5783 5781 5779 5777 5776 5775 5774 5773 5772 5770 5769 5768 5767 5766 5765 5764 5763 5762 5761 5760
5853 5855 5848 5835 5811 5795 5813 5841 5843 5845 5852 5858 5855 5848 5835 5826 5832 5828 5832 5834 5828 5817 5809 5802 5796 5793 5789 5787 5784 5782 5780 5778 5776 5774 5773 5772 5771 5770 5769 5768 5767 5766 5765 5764 5763 5761 5760 5759 5758
5851 5856 5838 5828 5813 5808 5823 5846 5849 5855 5861 5856 5847 5846 5834 5825 5832 5831 5833 5833 5826 5816 5809 5800 5795 5791 5788 5785 5782 5780 5778 5776 5774 5773 5771 5770 5769 5768 5767 5766 5765 5764 5763 5762 5761 5759 5758 5757 5757
5849 5847 5836 5821 5815 5839 5850 5855 5857 5852 5854 5856 5847 5834 5832 5840 5838 5837 5836 5832 5823 5815 5806 5797 5793 5789 5786 5783 5780 5778 5776 5774 5772 5771 5769 5768 5767 5766 5765 5764 5763 5762 5761 5760 5759 5757 5756 5756 5755
5850 5837 5820 5814 5825 5850 5860 5864 5862 5848 5846 5849 5845 5827 5820 5836 5843 5840 5834 5829 5821 5813 5803 5795 5790 5787 5784 5781 5778 5776 5774 5772 5771 5769 5767 5766 5765 5764 5763 5762 5760 5760 5758 5757 5757 5755 5754 5754 5754
5838 5835 5813 5812 5829 5854 5864 5868 5861 5850 5848 5849 5843 5827 5820 5836 5836 5834 5832 5826 5822 5812 5801 5792 5787 5784 5781 5779 5776 5774 5772 5771 5769 5767 5766 5764 5763 5762 5760 5759 5758 5758 5756 5756 5755 5754 5753 5752 5753
5830 5826 5820 5826 5832 5847 5860 5869 5858 5849 5844 5846 5846 5825 5820 5829 5833 5833 5829 5824 5819 5810 5799 5791 5785 5782 5779 5776 5774 5772 5770 5769 5767 5766 5764 5763 5761 5760 5758 5757 5756 5756 5755 5754 5753 5752 5751 5751 5752
5843 5830 5823 5835 5840 5844 5863 5865 5860 5852 5846 5857 5854 5827 5814 5825 5833 5830 5824 5819 5814 5806 5797 5791 5786 5781 5777 5774 5772 5770 5768 5767 5765 5764 5763 5761 5760 5759 5757 5755 5754 5754 5753 5752 5752 5751 5750 5750 5751
5846 5820 5816 5835 5846 5851 5864 5857 5858 5863 5852 5849 5851 5842 5835 5835 5831 5823 5815 5810 5805 5801 5796 5792 5786 5781 5778 5774 5771 5769 5767 5765 5764 5763 5762 5761 5760 5758 5756 5754 5753 5752 5752 5751 5751 5750 5749 5749 5750
5837 5816 5828 5852 5863 5860 5860 5857 5854 5850 5841 5837 5837 5838 5838 5832 5825 5815 5808 5802 5798 5794 5793 5791 5786 5782 5780 5777 5770 5768 5767 5764 5764 5763 5761 5761 5761 5759 5757 5753 5752 5751 5751 5750 5750 5749 5748 5748 5750
5838 5829 5844 5861 5871 5869 5859 5856 5857 5847 5833 5835 5828 5826 5829 5826 5819 5812 5807 5803 5798 5794 5791 5789 5785 5783 5781 5777 5771 5770 5769 5765 5764 5763 5762 5761 5760 5758 5755 5753 5751 5750 5750 5750 5749 5748 5749 5749 5750
5838 5844 5853 5859 5869 5862 5858 5857 5853 5850 5845 5852 5845 5837 5829 5822 5816 5811 5805 5801 5797 5792 5789 5787 5784 5781 5779 5777 5774 5773 5770 5766 5765 5763 5762 5761 5760 5758 5756 5754 5752 5751 5751 5750 5750 5749 5750 5750 5751
5837 5842 5854 5860 5862 5860 5857 5853 5852 5851 5857 5855 5846 5837 5829 5823 5817 5813 5807 5802 5796 5789 5786 5785 5783 5779 5777 5775 5773 5772 5770 5768 5766 5763 5761 5760 5759 5757 5756 5754 5753 5752 5751 5750 5749 5749 5749 5749 5749
5843 5846 5850 5855 5856 5857 5849 5848 5846 5848 5858 5851 5841 5833 5829 5823 5817 5810 5804 5798 5793 5788 5784 5782 5779 5776 5774 5771 5770 5770 5769 5767 5766 5763 5761 5760 5759 5756 5754 5753 5752 5751 5750 5749 5748 5747 5747 5747 5747
5845 5836 5838 5847 5850 5852 5847 5831 5836 5848 5852 5845 5839 5834 5829 5823 5817 5809 5804 5797 5792 5787 5783 5779 5776 5773 5770 5767 5767 5767 5766 5764 5764 5761 5759 5758 5757 5755 5753 5752 5750 5750 5749 5748 5746 5746 5745 5745 5746
5833 5822 5815 5837 5848 5851 5834 5811 5834 5845 5843 5838 5838 5833 5826 5820 5816 5810 5805 5797 5791 5785 5780 5776 5774 5769 5766 5764 5763 5764 5764 5763 5762 5759 5757 5755 5755 5753 5752 5751 5749 5748 5747 5746 5745 5745 5744 5743 5744
5813 5806 5811 5828 5848 5846 5833 5817 5834 5845 5840 5834 5834 5830 5824 5816 5812 5808 5803 5796 5789 5783 5777 5772 5770 5766 5763 5761 5760 5761 5760 5760 5759 5757 5755 5753 5752 5751 5751 5750 5749 5748 5747 5746 5745 5743 5742 5740 5741
5802 5810 5816 5821 5842 5841 5831 5827 5837 5843 5840 5835 5833 5829 5822 5814 5809 5807 5801 5795 5788 5781 5775 5770 5767 5763 5760 5758 5757 5756 5756 5756 5755 5755 5753 5751 5750 5750 5749 5749 5748 5747 5746 5744 5743 5742 5741 5740 5740
5817 5816 5815 5827 5846 5837 5829 5828 5835 5842 5841 5835 5831 5826 5820 5814 5811 5806 5799 5793 5785 5778 5772 5767 5763 5761 5757 5754 5752 5750 5749 5750 5751 5752 5751 5750 5749 5749 5748 5748 5747 5746 5745 5743 5742 5741 5739 5739 5740
5815 5810 5812 5825 5841 5835 5825 5824 5836 5841 5838 5837 5831 5825 5820 5813 5806 5801 5795 5789 5782 5775 5770 5765 5762 5759 5757 5754 5752 5751 5750 5749 5749 5749 5749 5748 5748 5748 5747 5746 5745 5745 5743 5742 5742 5741 5738 5739 5740
5810 5808 5811 5814 5828 5832 5820 5811 5820 5831 5837 5835 5833 5829 5824 5814 5804 5797 5791 5785 5779 5773 5769 5766 5761 5759 5756 5754 5751 5749 5747 5746 5746 5745 5745 5747 5747 5746 5747 5746 5745 5744 5743 5741 5741 5741 5738 5736 5739
5798 5817 5819 5815 5808 5805 5812 5785 5804 5817 5817 5819 5822 5825 5822 5816 5807 5798 5790 5783 5779 5775 5771 5767 5762 5759 5756 5753 5750 5747 5744 5742 5745 5745 5745 5745 5746 5745 5745 5745 5744 5744 5744 5742 5741 5742 5741 5738 5735
5807 5823 5817 5811 5803 5798 5807 5789 5796 5812 5800 5807 5815 5822 5821 5816 5808 5798 5791 5784 5781 5777 5772 5767 5762 5758 5756 5753 5751 5748 5746 5746 5746 5746 5744 5743 5744 5745 5745 5744 5744 5743 5743 5743 5742 5741 5740 5740 5738
5818 5812 5808 5804 5795 5775 5790 5783 5783 5802 5801 5806 5814 5822 5820 5816 5808 5799 5792 5786 5780 5777 5772 5767 5761 5757 5755 5752 5751 5748 5746 5745 5744 5743 5741 5741 5742 5744 5744 5744 5743 5743 5743 5742 5742 5741 5740 5740 5740
5808 5787 5768 5760 5758 5761 5785 5783 5793 5816 5821 5818 5814 5817 5819 5815 5806 5797 5789 5783 5779 5775 5771 5767 5761 5756 5754 5752 5749 5748 5747 5746 5744 5743 5741 5741 5741 5742 5743 5745 5743 5742 5742 5742 5742 5740 5740 5740 5739
5797 5791 5763 5746 5744 5755 5768 5768 5797 5824 5828 5827 5821 5818 5817 5812 5806 5798 5791 5785 5780 5776 5771 5766 5760 5756 5754 5751 5749 5748 5747 5746 5745 5744 5744 5743 5743 5744 5744 5744 5742 5742 5742 5742 5740 5740 5739 5740 5738
5793 5791 5800 5780 5768 5755 5759 5775 5799 5820 5821 5820 5816 5812 5810 5809 5804 5798 5793 5787 5782 5777 5772 5768 5761 5757 5754 5752 5749 5747 5746 5746 5745 5745 5745 5744 5745 5745 5743 5743 5742 5742 5741 5741 5739 5738 5738 5738 5737
5809 5802 5792 5777 5753 5743 5755 5761 5767 5788 5801 5807 5810 5807 5808 5808 5804 5798 5793 5788 5783 5779 5773 5768 5763 5758 5755 5752 5749 5746 5745 5746 5745 5744 5744 5744 5744 5744 5742 5741 5741 5740 5740 5739 5738 5737 5737 5736 5736
5794 5792 5789 5785 5778 5754 5743 5749 5777 5783 5792 5799 5804 5809 5808 5805 5802 5797 5793 5789 5784 5779 5773 5767 5762 5758 5754 5751 5749 5748 5746 5746 5745 5743 5743 5744 5743 5742 5741 5740 5739 5738 5738 5737 5736 5736 5736 5735 5734
5800 5793 5787 5765 5763 5769 5756 5756 5793 5791 5793 5798 5802 5806 5806 5804 5803 5799 5793 5788 5783 5778 5773 5767 5763 5758 5755 5753 5750 5748 5747 5746 5744 5743 5743 5743 5742 5741 5740 5739 5738 5737 5736 5736 5735 5734 5735 5734 5733